Location: Central Coast
(33.3208°S, 151.2336°E)
Time: 14:40:34
(UTC+11:00)

Tiangong 2 - Pass Details

Date: 08 October 2017
Orbit: 386 x 390 km, 42.8° (Epoch: 12 December)

Event Time Altitude Azimuth Distance (km) Brightness Sun altitude
Rises 20:12:43 0° 247° (WSW) 2,290 6.9 -15.1°
Reaches altitude 10° 20:15:25 10° 222° (SW) 1,434 4.9 -15.7°
Maximum altitude 20:17:27 15° 184° (S) 1,158 3.7 -16.1°
Drops below altitude 10° 20:19:28 10° 145° (SE) 1,434 3.8 -16.5°
Enters shadow 20:19:28 10° 145° (SE) 1,436 3.8 -16.5°
